Wind_Speed
12 12 12 12 13 13 14 14 15 14 13 12 12 12 12 10 8 8 7 6 5 6 6 7 7 8 9 10 11 12 13 12 12 12 14 14 15 15 15 16 16 16 16 16 16 16 17 17 17 18 18 19 21 22 23 24 25 27 28 29 29 30 32 33 35 38 41 43 45 46 46 46 45 44
13 13 12 12 13 12 13 13 14 14 12 11 11 11 12 10 8 8 8 7 7 7 8 9 9 9 10 11 12 14 15 14 12 12 13 14 15 16 16 17 18 18 19 19 19 19 20 21 21 21 21 21 22 24 26 26 27 28 29 29 30 31 33 35 39 42 44 46 47 48 48 47 45 44
14 13 12 12 11 11 12 12 12 12 12 11 11 11 11 10 9 9 9 8 7 8 10 11 12 12 13 14 14 15 16 15 15 14 14 15 16 17 18 19 20 21 22 22 22 22 24 24 24 24 23 24 25 27 28 28 28 29 28 29 31 32 35 38 42 45 47 49 49 48 47 45 44 43
14 14 13 12 11 10 11 11 10 10 10 10 11 10 10 9 9 9 9 9 9 10 12 14 14 14 14 15 16 17 17 17 16 16 17 19 21 22 21 21 21 22 23 23 24 25 26 27 27 27 26 26 27 28 29 29 29 29 29 31 33 35 38 43 46 49 50 50 49 47 46 45 44 43
15 15 14 13 11 11 11 10 9 9 9 9 9 9 9 9 10 10 10 10 11 12 14 15 15 15 15 16 18 19 19 19 19 18 18 20 22 24 25 25 25 24 23 24 25 26 27 28 28 28 28 29 29 29 30 30 29 29 32 34 35 38 43 47 50 52 52 50 48 46 45 45 45 44
15 16 15 14 13 12 12 10 8 8 9 9 9 9 8 9 11 11 11 12 13 14 16 16 16 16 17 18 19 20 20 21 21 20 18 19 22 25 26 27 27 26 25 25 26 27 28 29 29 28 30 31 31 31 31 30 30 32 35 36 38 42 48 51 53 53 52 50 48 47 46 45 45 44
15 16 16 15 14 13 12 11 9 8 8 9 9 9 9 11 13 12 12 13 14 16 17 18 17 18 19 20 21 22 23 24 23 22 21 21 23 26 27 27 29 29 29 28 28 27 27 28 28 28 31 32 32 32 32 32 33 36 37 38 43 48 52 54 55 53 52 50 49 48 47 46 45 44
14 15 16 15 15 14 14 13 11 10 10 10 11 11 11 14 14 13 13 14 16 18 18 18 19 20 21 23 24 25 26 26 25 25 24 24 25 27 27 28 29 29 30 29 28 27 26 26 27 28 31 32 33 33 34 37 41 43 43 46 50 53 55 56 55 54 52 51 50 49 48 47 46 45
15 14 15 15 15 15 15 15 14 12 12 12 13 13 14 15 15 14 15 16 17 19 19 19 21 23 24 25 26 28 28 27 27 26 25 25 26 26 26 26 26 27 27 28 28 28 27 29 30 32 34 35 34 35 39 45 48 49 51 53 54 55 57 57 56 55 53 51 50 50 49 48 47 45
19 16 16 16 15 15 16 17 17 15 15 16 16 15 15 16 16 16 17 18 19 20 21 21 21 24 26 27 27 27 28 28 28 28 26 24 25 26 25 25 26 27 27 27 28 28 28 30 32 33 34 36 38 41 45 49 51 53 55 56 57 58 59 58 57 56 54 52 51 51 50 49 48 46
21 18 17 17 16 16 17 19 19 18 18 19 19 17 17 17 18 18 18 19 20 21 23 23 21 22 26 28 28 27 28 28 29 29 27 26 27 27 27 27 28 30 30 29 29 30 31 33 33 33 35 38 43 46 48 50 53 56 58 58 59 60 60 59 58 56 53 52 52 52 51 50 48 45
21 19 18 18 18 17 18 20 20 20 21 21 21 20 19 19 21 22 21 21 21 22 23 22 21 22 25 27 29 29 29 30 31 30 28 29 29 30 30 29 30 33 33 33 34 35 36 36 37 38 41 44 47 49 50 53 55 58 59 60 61 61 61 60 58 55 53 52 53 53 52 50 47 44
23 22 22 22 21 21 21 22 22 21 22 22 23 23 21 20 22 25 24 23 23 23 24 23 23 25 26 28 29 30 28 28 28 27 27 28 29 29 29 29 32 35 36 36 37 38 39 41 43 45 46 48 49 51 53 55 57 59 61 62 62 62 62 61 57 54 53 53 54 54 53 50 46 43
27 26 25 25 24 23 23 24 23 20 20 23 24 24 24 23 24 25 25 25 25 25 25 24 25 27 28 29 29 29 27 27 26 26 26 27 28 28 28 30 35 38 39 39 39 39 42 45 47 48 49 50 51 53 56 57 59 61 63 63 64 64 62 60 56 54 54 54 55 54 52 49 45 42
30 28 26 25 24 22 22 23 22 19 19 22 25 25 25 25 24 24 25 26 26 27 27 27 28 29 29 29 29 30 29 28 28 28 28 30 31 30 31 35 40 41 41 42 42 44 47 50 50 51 52 52 54 56 58 59 61 64 65 65 65 64 61 58 55 54 54 55 55 54 51 47 43 42
31 28 26 25 23 22 21 22 21 19 20 24 27 27 26 26 25 25 26 27 28 28 29 30 31 31 31 30 30 31 30 30 32 33 33 33 33 33 36 41 44 44 45 47 48 50 52 53 53 54 54 55 56 58 60 62 64 66 66 66 65 62 58 55 54 54 55 55 55 54 50 45 41 42
31 28 26 26 25 23 23 23 22 21 23 28 29 29 28 27 27 28 28 28 28 29 29 30 32 32 32 31 31 31 32 34 37 39 38 37 37 39 43 45 46 48 50 51 52 54 55 56 57 57 57 57 58 60 63 65 66 67 66 65 62 59 56 54 55 55 55 55 55 53 48 42 40 41
32 30 28 28 27 25 25 25 24 23 26 30 32 31 31 29 29 30 30 30 29 29 29 30 32 33 32 31 31 32 34 38 41 43 43 43 44 45 48 49 50 52 53 53 55 56 58 59 60 60 60 59 61 64 66 67 67 67 65 62 58 56 55 55 55 55 55 56 54 50 44 40 38 39
35 34 33 31 30 28 27 28 29 28 30 32 34 34 34 32 31 31 31 31 30 29 30 31 32 32 32 33 34 35 38 41 43 45 46 46 47 48 50 51 53 54 55 56 57 58 60 61 61 61 61 63 65 67 67 68 68 65 62 58 57 56 56 55 55 55 57 56 52 46 41 38 38 38
38 38 37 35 33 31 30 30 31 32 34 36 37 37 35 33 33 32 31 32 32 32 32 33 34 34 36 38 40 41 42 44 45 47 48 48 49 50 51 53 55 56 57 58 59 60 61 61 62 63 65 67 68 68 68 67 65 61 59 58 58 57 56 55 55 57 57 54 48 42 38 38 38 39
40 40 38 37 36 34 32 32 32 33 35 38 38 37 34 32 32 34 34 35 35 35 36 36 37 38 40 42 43 45 47 47 48 49 49 50 51 52 53 55 56 58 59 60 60 61 62 63 64 67 68 69 69 68 66 63 61 60 60 59 58 57 56 56 58 58 55 49 42 38 37 36 37 37
43 43 40 37 37 36 34 33 33 34 35 38 38 37 36 35 36 37 37 38 38 38 38 39 40 41 43 45 46 48 49 49 50 51 51 52 54 54 55 57 58 60 61 62 62 63 64 66 67 68 68 68 66 65 63 60 60 60 60 59 59 59 59 59 59 55 49 42 37 34 34 34 35 35
42 43 42 40 38 38 37 37 36 36 36 38 38 38 37 38 39 39 39 39 39 39 39 41 42 44 46 47 48 49 50 51 51 52 53 54 56 57 58 59 60 62 64 65 65 66 67 68 67 67 67 66 64 62 60 60 59 59 60 61 61 61 59 56 52 47 41 36 34 33 33 33 34 36
39 39 41 40 39 38 39 41 41 40 39 38 38 38 38 39 40 40 40 40 40 41 42 44 46 47 48 49 49 50 51 52 53 53 55 56 57 59 60 62 63 66 67 68 68 67 67 67 67 66 64 62 61 61 61 61 61 62 62 61 58 55 51 47 43 39 36 34 34 34 34 35 36 37
40 39 39 39 39 39 41 42 42 42 40 38 39 40 41 42 43 43 43 43 44 46 47 48 49 50 50 50 51 52 53 53 54 56 57 58 60 61 62 64 67 69 70 69 68 67 67 66 65 63 62 61 62 63 63 62 60 58 55 52 47 44 41 39 37 35 35 35 35 36 36 37 37 38
43 44 42 41 41 42 43 43 43 43 42 41 41 42 44 45 46 46 47 47 48 49 50 50 51 51 52 52 53 53 54 55 57 58 59 61 62 63 64 66 68 69 69 68 67 65 64 63 62 61 60 59 57 54 53 50 47 44 42 40 39 37 35 35 35 35 35 36 37 37 38 38 38 37
46 46 46 45 46 46 46 46 46 45 44 43 43 44 45 46 47 48 49 50 50 51 51 52 52 53 54 54 55 55 57 58 60 61 62 62 62 63 65 67 68 68 67 65 63 61 59 57 55 51 47 43 39 37 37 37 35 34 33 34 34 33 33 33 34 35 36 37 38 38 38 38 37 37
49 49 49 50 50 49 47 47 47 46 46 46 46 46 47 48 49 50 51 52 52 53 53 53 53 54 55 56 57 58 60 61 64 65 64 63 63 64 65 66 66 64 62 59 57 53 49 43 37 33 31 30 30 31 31 32 32 32 32 33 33 33 34 35 36 37 38 39 40 40 40 39 38 38
52 52 51 52 51 51 50 49 49 50 50 50 49 49 50 51 52 52 52 53 53 52 53 53 55 56 57 59 60 61 62 64 67 67 65 64 64 65 66 65 62 59 56 54 48 41 33 27 25 26 27 28 29 29 30 31 32 33 34 34 35 35 36 38 40 41 42 44 45 45 45 44 42 41
54 55 56 55 53 53 52 53 53 53 53 52 52 52 53 53 52 52 52 52 52 52 54 55 56 57 59 61 62 63 64 67 69 69 67 66 67 68 66 63 58 54 51 45 36 28 24 23 25 27 27 27 27 28 29 30 32 33 34 35 36 37 38 39 41 43 45 46 48 49 50 50 48 47
57 56 55 55 54 53 53 53 53 53 52 52 52 52 52 52 52 52 52 52 52 53 55 56 57 58 59 61 63 64 66 68 70 70 69 69 70 68 64 59 55 50 44 35 28 24 24 25 26 27 28 28 28 28 29 30 32 33 34 35 36 38 38 40 41 42 44 46 48 50 52 53 53 52
55 53 51 51 52 52 52 52 51 51 51 51 51 51 51 52 52 52 52 52 54 55 57 58 59 59 60 62 64 66 68 70 71 72 71 71 70 66 61 57 52 45 37 31 28 27 26 26 27 28 29 29 29 29 31 32 33 34 34 35 37 38 40 41 42 43 45 47 48 50 52 54 55 56
48 48 48 48 48 49 50 50 51 51 51 51 51 51 52 53 53 53 53 54 56 58 59 59 60 61 62 64 66 68 71 72 73 72 71 70 67 63 60 55 50 42 36 32 31 29 28 28 29 30 30 30 31 32 33 34 34 35 36 37 38 40 41 43 44 46 47 49 50 52 53 55 57 58
48 47 46 46 46 47 49 50 52 53 54 54 55 55 55 56 55 55 56 58 59 60 60 60 61 63 65 67 70 72 73 72 71 69 68 65 63 61 58 53 47 42 38 36 34 32 32 33 33 32 32 33 33 34 35 36 37 38 38 39 41 42 44 46 47 48 49 51 52 53 55 56 58 60
52 50 49 49 49 49 50 51 53 54 55 56 57 58 58 58 58 58 59 60 60 60 61 62 64 66 69 70 71 70 68 67 66 65 64 62 61 60 57 52 47 44 43 41 39 37 37 38 37 36 35 35 35 35 36 37 37 38 40 41 42 44 46 48 49 51 53 54 55 56 57 58 59 61
53 53 52 52 51 51 51 52 52 54 56 57 58 59 60 60 60 61 61 60 61 62 64 66 68 69 69 68 66 64 64 64 65 63 61 61 61 59 56 52 49 48 47 46 44 42 42 43 42 40 38 38 37 38 38 39 39 40 41 43 44 46 48 49 51 54 56 58 60 61 62 62 62 63
52 52 52 51 51 51 51 51 52 53 54 56 58 59 60 60 61 61 61 62 64 66 67 67 66 65 64 63 63 64 65 66 64 61 60 61 60 58 56 54 52 51 51 49 47 47 47 46 45 44 43 42 42 42 43 44 43 43 44 46 48 51 53 55 56 58 61 63 65 66 67 67 66 66
54 53 53 52 52 51 51 51 52 54 55 57 58 59 60 61 62 63 64 65 66 65 65 64 63 63 63 64 66 67 68 67 64 61 61 61 60 58 57 55 54 53 52 51 51 51 51 50 49 49 48 47 46 46 46 47 48 49 50 51 54 58 61 63 64 66 67 69 71 72 73 72 70 69
58 57 56 55 54 53 53 53 53 54 56 58 59 61 62 62 63 64 64 64 63 63 63 63 63 64 65 67 68 69 69 68 65 62 61 61 60 59 58 57 56 55 54 54 55 56 56 55 54 53 53 52 51 50 50 51 52 54 56 59 62 65 67 69 70 72 73 74 75 77 78 78 75 74
60 59 58 57 56 55 55 55 55 55 55 56 57 58 58 59 60 60 61 61 62 62 63 64 64 65 66 67 68 70 70 68 65 63 62 62 61 60 59 59 59 58 57 57 58 59 60 60 59 57 57 57 56 55 56 56 57 59 63 66 69 71 73 74 74 75 77 78 79 81 83 82 80 78
60 59 59 59 58 57 57 58 58 58 58 58 59 60 60 61 62 63 65 65 65 65 66 66 67 67 68 68 70 70 69 67 65 64 63 63 62 62 63 63 63 62 61 60 60 62 64 65 64 63 62 61 60 60 61 62 63 65 68 72 74 75 77 77 77 78 79 80 82 84 86 85 84 82
60 60 60 60 60 61 62 62 63 63 64 64 65 66 66 67 68 68 69 69 69 69 69 68 69 69 68 68 69 69 68 66 65 65 65 64 64 65 65 65 65 65 64 64 63 65 66 68 69 69 68 66 66 65 65 67 68 70 72 75 77 79 80 80 80 82 83 84 86 88 89 89 88 86
61 61 61 61 62 63 65 66 67 68 69 69 70 70 70 71 71 72 72 72 72 71 70 69 69 68 67 67 67 67 66 66 66 66 66 66 66 66 66 67 67 67 67 67 67 67 68 70 72 72 72 72 72 71 70 72 73 75 77 79 81 82 83 83 84 87 89 90 92 93 93 92 91 87
61 61 62 62 63 65 66 67 68 69 70 72 72 73 74 75 75 74 73 73 72 71 70 69 67 66 65 65 66 66 66 66 66 67 67 67 67 67 66 66 67 68 69 70 70 70 70 71 73 75 76 77 77 76 76 77 79 81 84 86 87 87 87 88 90 93 95 97 97 96 96 95 92 87
63 63 63 63 64 65 67 67 68 69 70 71 72 73 74 74 74 73 71 70 69 68 66 65 64 63 63 63 65 66 67 67 67 67 68 68 67 67 67 67 67 67 69 70 72 72 73 74 76 78 79 80 81 82 82 84 86 89 92 93 92 91 92 93 96 98 99 101 101 100 98 96 92 86
Wind_Direction
175 171 167 167 170 171 175 179 180 178 176 179 183 187 191 189 188 195 202 211 228 252 266 266 272 283 287 287 283 278 276 274 277 285 290 294 296 297 299 300 301 302 301 300 300 299 300 301 301 303 308 313 317 319 319 318 318 318 318 318 318 320 321 322 323 323 323 321 319 318 318 318 317 315
176 169 161 159 160 161 164 171 177 181 183 186 189 192 196 197 202 209 210 218 237 256 268 270 268 269 270 267 265 270 276 277 278 282 290 298 300 298 299 300 300 299 298 296 295 296 296 297 298 300 303 307 312 315 316 315 315 316 317 318 319 320 321 322 323 323 322 321 319 318 317 317 317 316
180 173 167 162 157 156 160 166 175 183 188 192 193 195 201 207 215 222 218 217 234 253 266 269 264 263 265 265 267 273 279 283 284 283 289 299 301 299 300 302 302 301 300 298 296 297 298 298 298 299 301 305 310 314 314 314 315 316 317 318 319 320 322 323 323 323 323 321 320 318 318 318 318 317
186 183 180 175 168 164 165 169 175 182 185 187 191 196 205 213 217 222 224 222 224 236 251 260 264 265 267 269 272 277 280 283 286 288 292 296 296 297 299 303 306 306 306 304 303 304 304 304 303 301 302 305 308 312 314 314 314 315 317 318 318 320 322 324 324 324 323 322 320 319 319 319 319 318
194 193 188 185 179 175 178 180 183 189 189 189 194 198 207 219 220 221 231 235 233 236 245 255 263 268 269 269 272 276 281 285 288 290 292 293 294 296 299 304 310 311 310 307 305 305 307 310 310 306 305 306 306 308 312 314 313 314 316 316 316 319 322 324 324 324 323 321 320 320 319 319 319 318
198 199 196 193 190 188 192 195 193 193 195 200 205 203 211 228 231 231 236 241 244 248 253 259 264 267 270 273 275 276 281 285 288 291 295 296 294 295 298 303 308 311 309 306 304 304 306 309 310 308 309 309 306 306 311 313 313 315 317 316 318 321 323 324 323 323 322 321 320 319 319 319 319 318
204 205 205 205 202 200 202 204 199 199 205 216 217 213 222 233 236 241 244 247 252 255 260 266 269 271 274 277 280 281 283 285 288 291 294 292 289 290 293 298 303 305 303 302 302 303 304 305 306 308 309 309 306 305 309 311 313 317 318 319 321 322 323 324 323 322 321 320 319 319 319 320 319 318
208 207 209 211 210 210 212 211 208 210 218 227 225 223 231 236 240 248 250 254 259 262 267 274 278 279 279 281 283 285 284 285 287 290 290 288 286 288 291 296 303 306 306 305 305 305 306 309 311 309 308 309 308 306 308 311 313 315 318 320 322 323 324 323 322 321 320 319 318 318 320 320 319 317
203 210 214 213 211 214 217 218 220 225 231 237 237 236 239 243 249 254 255 258 263 266 270 276 281 284 283 284 286 286 287 288 290 292 294 293 291 292 293 297 307 316 317 315 313 312 313 315 314 310 308 310 309 307 309 311 311 313 316 319 321 322 322 322 321 320 319 318 318 319 320 320 319 317
207 214 218 217 219 223 224 225 229 236 240 242 244 246 247 250 256 260 261 262 264 266 268 272 279 284 285 287 288 287 289 291 293 297 300 299 297 297 299 302 311 319 320 317 316 314 312 313 313 310 309 308 307 306 308 309 311 313 316 317 319 320 320 320 320 320 318 317 318 319 320 319 318 315
219 218 218 219 225 231 233 233 235 238 243 244 246 249 250 253 258 262 263 264 265 267 268 270 274 279 284 286 287 287 288 290 293 298 301 300 297 299 301 303 310 316 316 314 312 308 307 310 309 307 305 304 305 307 308 309 312 314 315 316 316 317 318 319 319 318 317 316 318 319 319 318 316 313
223 226 227 225 226 229 235 239 240 239 242 245 249 254 255 255 260 263 264 266 267 267 269 271 272 278 282 285 286 287 288 291 296 299 299 296 294 296 299 301 306 312 313 312 311 309 308 309 307 305 304 304 306 308 310 311 313 314 314 314 314 315 317 317 317 316 316 316 318 318 318 317 314 311
224 228 232 233 234 234 236 240 241 241 244 249 253 257 257 256 260 263 263 265 267 268 271 272 274 276 280 284 289 291 291 295 300 301 299 297 294 295 297 299 303 307 309 309 309 309 309 309 307 306 306 306 307 308 309 311 312 312 312 312 313 314 315 316 315 314 315 316 317 318 317 316 312 308
226 227 230 236 239 239 238 239 240 242 249 255 256 258 258 258 261 261 259 261 265 270 274 275 274 274 277 285 291 293 293 297 303 303 301 301 299 296 296 299 303 304 305 306 306 305 307 309 308 307 306 306 307 307 308 310 311 311 310 311 312 313 314 314 313 313 314 315 317 317 316 313 309 306
227 228 230 235 237 237 239 242 243 243 248 254 256 256 258 260 261 260 258 259 262 266 270 272 273 275 280 285 289 291 292 296 303 303 299 297 294 289 291 299 302 302 302 304 304 304 306 308 308 306 306 305 305 306 307 309 310 310 309 310 311 312 312 311 311 312 313 315 316 316 314 311 307 304
230 230 230 231 232 233 238 243 248 250 251 253 254 256 259 261 263 262 262 262 264 266 268 270 273 277 280 282 286 290 290 293 299 301 297 294 289 285 290 298 300 300 301 304 304 305 306 306 306 305 304 304 304 305 307 308 308 308 308 309 310 310 310 309 310 311 313 314 316 315 312 308 304 303
233 232 230 230 231 234 237 243 248 253 255 254 254 257 260 263 266 267 265 265 267 269 272 274 275 277 278 280 284 286 285 289 296 299 298 296 292 291 294 297 298 299 301 303 304 304 304 304 304 304 303 303 304 305 306 307 307 307 307 308 308 308 307 308 309 310 312 314 315 313 310 305 302 302
235 234 232 230 232 234 238 244 247 249 252 252 254 257 260 263 266 266 266 266 268 271 275 277 276 274 275 280 284 284 284 288 293 296 297 296 294 293 295 296 297 298 300 301 302 303 302 302 302 302 302 302 303 304 305 305 305 306 306 306 306 306 306 307 308 309 312 313 313 311 307 303 301 301
236 239 238 232 230 234 239 245 249 249 250 251 254 256 259 262 264 264 264 265 267 271 273 273 271 271 274 281 285 285 286 289 291 294 295 295 294 295 295 296 297 298 300 301 301 301 300 300 301 301 301 302 303 303 304 305 305 305 305 305 305 305 306 306 308 309 311 312 311 308 304 301 300 300
237 242 242 235 231 235 242 248 253 253 252 252 254 257 260 262 263 264 265 267 268 269 268 267 266 269 275 282 285 288 290 291 291 293 294 295 296 297 297 298 298 299 299 300 300 299 299 300 300 301 301 302 302 303 304 304 305 305 304 304 304 304 304 305 307 309 310 309 308 305 301 300 300 300
238 242 243 239 233 234 240 249 257 258 256 254 255 258 260 259 261 263 266 269 270 270 269 268 269 272 277 282 287 290 293 293 293 293 294 295 296 297 298 298 298 299 299 299 299 298 298 299 300 300 301 301 302 303 304 304 304 304 303 303 303 303 303 304 306 307 307 306 304 302 301 301 301 301
239 240 242 241 236 233 238 248 256 259 258 256 255 258 259 259 262 265 267 268 270 271 271 272 272 275 279 284 288 291 293 293 293 293 293 295 296 296 297 298 298 298 298 297 297 297 297 298 299 300 301 302 302 303 304 304 303 303 303 303 302 302 302 303 304 305 304 303 302 301 301 301 301 300
240 240 242 242 239 237 239 245 252 258 259 256 255 257 260 262 265 267 268 268 269 270 270 271 272 275 280 284 287 289 291 293 293 293 293 294 295 295 297 298 298 297 297 297 297 297 298 298 299 300 301 302 303 303 303 303 303 302 302 302 302 302 302 303 303 304 303 302 301 301 300 300 300 300
244 243 244 245 243 242 242 244 250 255 257 255 253 255 259 262 265 267 268 269 269 270 272 273 274 277 280 283 286 288 290 292 292 293 294 294 295 296 297 298 298 298 297 297 297 298 298 299 300 301 302 302 302 302 302 302 301 301 301 301 301 302 302 303 304 303 302 301 300 301 301 301 302 302
244 244 247 248 246 244 244 245 248 252 254 254 254 256 259 262 264 266 268 269 270 271 274 276 277 278 280 282 285 287 289 291 293 294 295 295 296 296 297 298 298 297 297 297 298 300 301 301 302 302 303 302 302 302 301 301 301 301 301 301 302 303 304 304 303 302 301 301 302 302 303 304 305 305
241 244 248 250 248 246 244 245 248 252 255 257 258 260 262 264 266 267 268 269 270 272 274 276 277 278 280 282 285 287 290 292 294 295 295 295 295 296 298 298 298 297 298 299 301 302 302 302 303 303 303 303 303 303 303 304 305 306 306 306 307 308 307 304 303 303 303 304 305 305 306 306 307 306
241 244 247 248 248 247 246 247 251 254 257 260 262 265 267 267 268 269 270 271 271 273 274 276 277 279 281 284 286 288 290 292 293 294 294 294 295 297 298 299 298 299 299 300 301 302 303 303 304 305 306 307 308 310 311 313 316 318 319 317 316 315 312 309 307 307 307 307 307 306 306 306 305 305
240 243 245 248 248 248 248 250 252 255 259 264 266 268 269 270 271 271 271 272 273 274 276 278 280 282 284 286 288 289 290 291 292 293 294 295 297 299 300 299 299 299 299 300 301 303 303 304 306 308 312 314 316 317 319 322 326 329 330 329 327 324 320 317 316 314 312 310 308 306 305 305 304 303
238 241 246 249 249 247 248 250 252 257 262 266 268 269 270 271 271 271 272 273 275 277 280 282 283 284 286 287 288 289 290 291 292 293 294 295 298 300 300 300 299 298 300 302 303 302 301 303 306 311 314 317 319 322 326 329 332 334 336 336 335 333 330 326 324 322 319 316 313 310 307 305 303 303
239 243 247 250 249 247 248 251 255 259 263 265 267 268 269 269 270 271 273 275 277 279 281 282 283 284 286 287 288 289 290 290 291 291 293 295 299 301 300 299 299 300 301 301 298 295 296 300 305 310 313 317 320 324 328 331 333 336 337 337 337 338 337 334 332 329 326 323 320 317 313 309 305 302
242 246 249 249 248 249 252 256 259 261 263 264 265 266 267 268 270 272 274 276 277 280 281 282 283 285 286 287 288 289 289 290 289 290 293 296 299 300 300 298 299 299 297 291 284 283 288 295 303 309 313 316 319 321 325 328 330 331 332 333 332 331 331 331 330 329 327 325 323 320 317 314 309 304
245 247 249 249 250 253 257 260 262 263 263 264 265 266 268 270 272 273 274 276 279 280 282 283 283 285 286 287 288 288 289 289 289 291 293 296 298 299 298 298 298 295 287 278 275 278 284 293 304 312 316 318 320 322 324 326 326 326 327 326 325 324 324 324 324 324 324 324 323 321 319 316 312 308
248 249 251 253 256 259 260 261 262 263 263 264 265 267 270 271 272 273 275 277 279 280 281 282 283 284 285 286 287 287 288 288 290 291 293 296 297 297 296 297 295 288 276 271 273 277 284 295 303 310 316 319 322 324 326 326 326 325 324 324 324 324 324 324 324 324 324 324 323 322 320 317 314 310
252 251 253 256 259 261 261 261 262 262 263 265 267 269 271 272 272 273 275 278 279 280 281 282 282 283 284 285 286 287 288 289 290 291 293 295 296 295 295 295 290 279 270 269 270 274 283 292 298 305 310 314 317 320 322 323 324 323 323 323 322 323 324 325 325 324 324 324 323 322 321 319 316 312
253 253 255 257 259 261 262 262 263 263 264 266 268 270 271 272 273 275 277 279 280 280 281 282 282 283 284 285 286 287 288 289 290 292 294 295 295 294 293 291 284 274 269 269 270 273 282 289 292 297 301 305 309 312 314 317 318 318 319 319 319 320 322 323 324 324 324 325 325 324 323 321 319 315
254 255 256 257 259 261 262 263 264 265 266 267 269 270 271 272 274 276 277 278 279 280 281 282 282 282 283 284 286 288 290 291 291 293 294 293 293 292 290 288 281 272 269 270 271 274 279 283 285 288 293 297 302 305 308 311 312 313 314 315 315 317 319 320 322 323 324 326 326 326 324 323 321 319
253 255 256 257 259 260 261 263 265 266 267 268 269 270 271 273 274 276 277 277 278 279 280 280 281 282 284 287 290 292 292 292 291 291 291 291 291 290 288 285 279 272 269 270 272 273 275 277 280 283 287 292 296 300 303 306 308 310 312 313 313 315 317 319 320 321 322 324 325 325 325 323 322 320
256 258 258 259 260 261 262 264 265 266 267 268 269 270 271 271 272 273 274 275 276 278 279 281 283 285 288 290 291 292 292 291 289 289 289 289 289 287 285 282 278 272 268 268 270 271 272 275 277 280 283 286 291 295 298 302 304 307 309 310 312 313 314 316 317 318 319 321 322 323 324 323 321 320
258 260 261 261 261 261 261 263 264 265 266 267 268 268 269 269 270 272 274 275 277 279 282 284 286 287 289 290 291 291 290 288 287 287 288 287 287 285 283 281 277 272 269 268 269 269 271 273 275 277 279 282 286 290 294 298 302 304 306 308 310 310 311 313 314 315 317 319 319 320 321 321 320 320
259 260 261 261 261 260 260 261 262 263 264 266 267 268 269 270 272 274 277 279 281 282 284 285 287 288 289 290 290 289 288 286 286 286 286 286 285 284 282 280 277 273 270 269 268 269 270 272 273 275 278 281 284 288 291 295 298 300 302 305 307 308 308 309 311 313 315 316 317 318 319 319 319 319
258 259 259 260 261 260 260 261 262 263 264 266 267 269 270 272 274 276 278 279 281 282 284 285 286 287 288 289 289 287 286 285 284 285 285 284 284 283 283 281 278 275 272 270 269 270 272 273 275 276 278 280 283 285 289 292 295 297 300 302 305 306 306 307 308 311 313 314 316 317 318 318 318 317
257 257 258 258 259 260 262 263 264 265 266 267 269 270 272 273 275 276 278 279 280 281 282 283 285 286 286 286 286 284 283 283 283 284 284 284 283 284 284 283 281 277 274 272 272 272 274 276 278 279 280 281 283 285 287 290 292 295 298 301 303 304 305 305 306 308 310 312 314 315 316 316 316 316
255 256 256 257 258 260 261 263 265 266 268 269 271 272 273 274 276 277 278 278 279 280 280 281 282 283 283 283 282 281 281 281 282 283 283 283 284 285 285 285 283 280 277 275 275 276 277 279 280 281 282 283 284 286 287 289 292 295 298 300 302 303 304 304 305 307 309 311 312 313 314 315 315 315
256 257 258 259 261 262 264 265 267 268 269 271 272 273 273 274 275 276 277 277 278 278 278 278 279 279 279 279 279 278 279 280 281 282 283 284 285 286 286 285 284 283 282 280 278 278 279 281 282 283 284 285 286 287 289 291 293 296 299 300 301 301 302 304 305 307 308 310 311 311 312 313 314 313
258 260 261 263 265 266 268 269 270 270 271 271 272 272 272 273 274 275 275 275 275 275 276 276 276 276 276 276 276 276 277 279 281 282 283 283 284 285 286 286 285 286 286 285 283 282 283 284 285 285 285 286 287 289 291 293 296 298 300 301 301 302 302 304 305 307 308 309 310 310 312 312 312 312
Height
10996 10997 10997 10997 10998 10999 11000 11001 11002 11003 11004 11004 11005 11006 11007 11008 11009 11009 11010 11010 11010 11011 11010 11009 11009 11009 11009 11010 11008 11006 11005 11004 11004 11004 11004 11005 11005 11005 11004 11004 11003 11002 11001 11001 11000 10999 10999 10999 10998 10997 10997 10996 10995 10994 10993 10991 10990 10989 10987 10986 10985 10983 10982 10981 10979 10977 10975 10973 10970 10968 10965 10963 10960 10957
10996 10997 10997 10997 10998 10999 10999 11000 11001 11002 11003 11004 11005 11006 11007 11008 11009 11009 11009 11009 11009 11010 11010 11009 11007 11007 11009 11009 11006 11003 11003 11004 11004 11003 11004 11004 11004 11003 11003 11002 11001 11000 10999 10999 10998 10997 10997 10997 10996 10996 10995 10994 10993 10992 10991 10989 10988 10986 10985 10983 10982 10981 10979 10978 10976 10974 10971 10969 10966 10963 10961 10958 10955 10953
10996 10997 10997 10998 10998 10999 10999 11000 11001 11002 11003 11004 11005 11006 11007 11008 11008 11008 11008 11007 11007 11008 11007 11007 11006 11006 11008 11007 11004 11003 11003 11004 11004 11004 11004 11004 11003 11002 11001 11001 11000 10999 10998 10997 10997 10996 10996 10995 10995 10994 10993 10992 10991 10990 10988 10987 10985 10984 10982 10981 10979 10978 10976 10975 10972 10970 10967 10965 10962 10959 10956 10953 10950 10948
10996 10996 10997 10998 10998 10999 11000 11000 11001 11002 11003 11004 11005 11006 11007 11007 11007 11007 11007 11006 11005 11004 11003 11004 11005 11005 11006 11005 11004 11002 11002 11003 11003 11004 11004 11003 11002 11001 11000 11000 10999 10998 10997 10996 10996 10995 10995 10994 10993 10992 10991 10990 10988 10987 10986 10984 10983 10981 10979 10978 10976 10975 10973 10971 10969 10966 10963 10960 10957 10954 10952 10949 10946 10944
10995 10996 10996 10997 10998 10999 10999 11000 11001 11002 11002 11003 11004 11005 11006 11006 11006 11006 11007 11006 11005 11003 11002 11002 11004 11004 11004 11003 11002 11001 11001 11002 11002 11003 11003 11002 11000 11000 10999 10999 10998 10997 10996 10995 10994 10994 10993 10992 10990 10989 10988 10987 10986 10985 10983 10981 10980 10978 10976 10975 10973 10971 10969 10967 10964 10961 10958 10955 10952 10950 10947 10944 10942 10939
10994 10995 10996 10996 10997 10998 10999 10999 11000 11001 11002 11003 11003 11004 11004 11005 11006 11006 11006 11006 11004 11003 11002 11002 11003 11003 11002 11001 11001 11000 11000 11000 11001 11001 11001 11000 10999 10998 10998 10998 10997 10996 10994 10993 10993 10992 10991 10990 10988 10987 10986 10985 10983 10982 10980 10978 10977 10975 10973 10971 10969 10967 10965 10962 10959 10957 10954 10950 10948 10945 10942 10939 10937 10934
10993 10994 10995 10995 10996 10997 10998 10999 11000 11000 11001 11002 11002 11002 11003 11004 11005 11005 11005 11005 11004 11002 11001 11001 11001 11001 11001 11000 10999 10999 10998 10998 10999 10999 10998 10998 10996 10995 10996 10997 10995 10993 10992 10991 10990 10989 10988 10987 10986 10985 10984 10982 10981 10979 10977 10975 10973 10971 10969 10967 10965 10963 10960 10957 10954 10952 10949 10946 10943 10940 10937 10935 10932 10930
10991 10992 10993 10994 10995 10996 10997 10998 10999 11000 11000 11001 11001 11001 11002 11002 11003 11003 11003 11003 11002 11001 11000 11000 10999 10999 10999 10999 10998 10997 10997 10997 10997 10997 10996 10995 10994 10993 10994 10995 10993 10991 10989 10988 10988 10986 10985 10984 10983 10982 10981 10980 10978 10976 10974 10972 10970 10967 10965 10963 10960 10958 10955 10953 10950 10947 10944 10941 10938 10935 10933 10930 10927 10925
10987 10988 10989 10991 10993 10994 10996 10997 10998 10999 10999 11000 10999 11000 11000 11001 11001 11001 11002 11001 11001 11000 10999 10999 10998 10997 10996 10996 10996 10995 10995 10995 10995 10995 10994 10993 10991 10991 10992 10992 10990 10988 10987 10986 10985 10984 10982 10981 10980 10979 10978 10976 10975 10973 10971 10969 10966 10963 10961 10958 10956 10953 10951 10948 10946 10943 10939 10936 10934 10931 10928 10925 10923 10920
10984 10984 10985 10987 10989 10992 10994 10995 10996 10997 10998 10998 10998 10998 10998 10998 10998 10999 10999 10999 10999 10998 10997 10997 10996 10994 10993 10993 10993 10992 10992 10992 10992 10992 10991 10990 10989 10988 10988 10988 10987 10986 10985 10984 10983 10982 10980 10979 10978 10976 10975 10973 10971 10969 10967 10965 10962 10959 10956 10953 10951 10949 10947 10944 10941 10938 10935 10932 10929 10926 10923 10920 10918 10915
10984 10983 10983 10983 10985 10987 10990 10992 10993 10994 10995 10995 10995 10995 10995 10995 10996 10997 10997 10997 10997 10996 10995 10995 10993 10992 10990 10990 10990 10990 10990 10990 10990 10990 10989 10987 10986 10985 10984 10984 10984 10983 10982 10981 10980 10979 10977 10975 10974 10972 10971 10968 10966 10964 10962 10960 10958 10955 10951 10949 10946 10944 10942 10940 10937 10934 10930 10927 10924 10921 10918 10916 10913 10910
10983 10983 10983 10982 10982 10982 10985 10988 10989 10991 10992 10992 10992 10992 10992 10992 10993 10994 10994 10994 10994 10993 10993 10992 10991 10990 10988 10987 10987 10988 10988 10988 10988 10987 10986 10984 10982 10981 10981 10980 10980 10979 10978 10978 10976 10974 10972 10971 10969 10968 10966 10964 10961 10959 10958 10956 10953 10950 10947 10944 10942 10940 10937 10935 10932 10929 10926 10922 10919 10916 10914 10911 10908 10906
10980 10981 10981 10981 10981 10981 10982 10984 10985 10987 10988 10989 10989 10990 10990 10991 10991 10992 10992 10992 10991 10991 10991 10990 10990 10988 10987 10986 10986 10986 10986 10986 10985 10984 10982 10981 10979 10977 10977 10976 10975 10975 10974 10973 10972 10970 10968 10967 10965 10963 10961 10959 10957 10955 10953 10951 10949 10945 10942 10940 10937 10935 10932 10930 10927 10924 10921 10917 10914 10911 10909 10906 10903 10901
10977 10978 10979 10979 10980 10981 10981 10980 10981 10983 10984 10985 10986 10987 10988 10989 10989 10989 10989 10989 10989 10989 10989 10988 10987 10986 10985 10984 10984 10984 10983 10983 10982 10981 10980 10978 10976 10975 10973 10972 10971 10971 10970 10969 10968 10966 10964 10962 10961 10959 10957 10954 10952 10950 10948 10946 10944 10940 10937 10935 10932 10930 10927 10924 10921 10919 10916 10913 10909 10906 10903 10901 10898 10896
10975 10976 10977 10978 10979 10979 10979 10978 10978 10978 10980 10982 10984 10984 10985 10986 10986 10986 10986 10987 10987 10987 10986 10986 10985 10984 10983 10983 10982 10982 10982 10980 10979 10978 10978 10977 10975 10973 10971 10969 10968 10967 10966 10965 10964 10962 10960 10958 10957 10955 10952 10950 10947 10944 10942 10940 10938 10935 10932 10929 10927 10924 10922 10919 10916 10913 10911 10908 10904 10901 10898 10895 10893 10891
10972 10974 10976 10976 10976 10977 10977 10977 10976 10975 10977 10979 10981 10982 10982 10983 10984 10984 10983 10984 10984 10984 10984 10983 10982 10982 10982 10981 10980 10980 10980 10978 10977 10976 10975 10975 10973 10971 10969 10967 10965 10963 10962 10960 10959 10957 10955 10953 10952 10950 10947 10945 10942 10939 10937 10935 10933 10930 10927 10924 10921 10919 10916 10913 10911 10908 10905 10902 10899 10896 10893 10890 10888 10886
10969 10971 10973 10974 10974 10974 10975 10974 10974 10974 10975 10976 10977 10978 10980 10981 10981 10981 10981 10981 10981 10981 10981 10981 10980 10979 10979 10978 10978 10978 10977 10976 10974 10972 10971 10971 10969 10968 10966 10964 10962 10959 10958 10956 10954 10952 10950 10948 10946 10944 10941 10939 10937 10934 10931 10930 10927 10924 10921 10919 10916 10913 10911 10908 10905 10903 10900 10897 10894 10890 10888 10886 10884 10882
10966 10968 10969 10971 10971 10972 10972 10972 10972 10972 10973 10973 10974 10975 10976 10977 10977 10977 10978 10978 10978 10978 10978 10978 10977 10976 10976 10976 10976 10976 10975 10973 10971 10969 10967 10966 10964 10963 10961 10960 10958 10955 10954 10953 10951 10948 10946 10943 10942 10939 10936 10934 10932 10929 10926 10923 10921 10918 10916 10913 10911 10908 10905 10902 10900 10897 10894 10891 10888 10885 10883 10881 10879 10878
10963 10964 10966 10968 10969 10969 10969 10969 10970 10971 10971 10971 10971 10972 10972 10973 10973 10974 10974 10974 10975 10975 10975 10975 10974 10973 10973 10973 10973 10973 10972 10970 10968 10966 10965 10963 10961 10959 10957 10955 10953 10951 10950 10948 10946 10944 10941 10938 10936 10934 10931 10928 10926 10924 10921 10917 10914 10912 10910 10907 10905 10902 10899 10896 10893 10891 10888 10885 10882 10880 10877 10876 10874 10873
10960 10960 10962 10964 10965 10965 10966 10966 10967 10968 10969 10968 10967 10968 10968 10969 10969 10969 10970 10971 10971 10972 10972 10971 10971 10970 10970 10970 10970 10969 10968 10967 10966 10964 10962 10959 10957 10956 10954 10951 10948 10946 10945 10944 10942 10939 10936 10933 10931 10929 10926 10922 10918 10917 10915 10911 10908 10906 10904 10901 10899 10896 10893 10890 10887 10884 10881 10879 10876 10874 10872 10870 10869 10867
10956 10957 10958 10959 10961 10962 10963 10963 10964 10965 10966 10965 10964 10964 10965 10966 10965 10966 10967 10967 10967 10968 10968 10968 10968 10967 10967 10967 10966 10965 10964 10963 10962 10960 10958 10955 10953 10951 10949 10947 10944 10942 10940 10939 10938 10934 10931 10929 10926 10923 10920 10917 10912 10910 10908 10906 10902 10899 10897 10895 10892 10890 10887 10885 10882 10879 10876 10873 10871 10869 10867 10865 10864 10862
10952 10953 10954 10955 10956 10958 10959 10960 10961 10962 10962 10962 10962 10962 10962 10962 10962 10963 10964 10964 10964 10964 10964 10964 10964 10964 10963 10963 10962 10961 10960 10959 10958 10956 10953 10951 10948 10946 10945 10942 10940 10937 10935 10934 10933 10929 10926 10924 10921 10917 10914 10910 10907 10904 10901 10899 10896 10892 10889 10887 10885 10883 10880 10878 10875 10873 10870 10867 10865 10864 10863 10861 10860 10858
10948 10950 10950 10950 10952 10954 10956 10957 10957 10958 10959 10959 10958 10958 10958 10958 10959 10960 10960 10960 10960 10960 10960 10960 10960 10959 10959 10958 10957 10956 10955 10954 10953 10951 10949 10946 10943 10941 10939 10937 10935 10932 10930 10928 10927 10924 10920 10918 10916 10913 10909 10904 10901 10898 10895 10892 10889 10886 10882 10880 10877 10875 10872 10870 10868 10866 10864 10862 10860 10859 10858 10857 10855 10853
10944 10945 10945 10946 10948 10951 10952 10952 10953 10954 10955 10955 10955 10955 10955 10954 10955 10955 10956 10956 10956 10956 10955 10956 10955 10955 10954 10953 10952 10951 10950 10949 10947 10946 10944 10942 10939 10936 10934 10932 10930 10927 10924 10922 10921 10918 10914 10911 10909 10907 10904 10899 10895 10891 10889 10886 10883 10880 10876 10873 10871 10868 10865 10863 10862 10860 10859 10857 10856 10854 10853 10852 10851 10849
10938 10939 10939 10942 10944 10946 10947 10947 10948 10949 10950 10951 10951 10951 10951 10951 10951 10951 10952 10952 10951 10950 10950 10950 10950 10950 10949 10948 10948 10947 10945 10944 10942 10941 10939 10936 10934 10932 10930 10927 10925 10921 10918 10917 10915 10912 10908 10905 10903 10900 10897 10894 10890 10885 10882 10879 10877 10874 10870 10867 10865 10863 10860 10858 10857 10856 10854 10853 10852 10850 10849 10847 10846 10844
10932 10932 10935 10937 10939 10940 10941 10943 10943 10944 10945 10946 10947 10947 10947 10947 10946 10946 10947 10947 10946 10945 10945 10945 10944 10944 10944 10943 10942 10941 10940 10939 10937 10935 10934 10932 10929 10927 10924 10922 10919 10916 10913 10911 10909 10906 10903 10899 10896 10893 10890 10887 10884 10880 10876 10873 10871 10869 10865 10862 10860 10858 10857 10855 10853 10852 10851 10849 10848 10846 10844 10843 10841 10839
10926 10928 10930 10932 10933 10934 10937 10938 10939 10939 10940 10941 10942 10942 10942 10942 10942 10941 10941 10941 10941 10940 10940 10940 10939 10939 10938 10938 10937 10936 10935 10933 10931 10930 10928 10927 10925 10922 10919 10916 10913 10910 10908 10905 10903 10900 10897 10894 10890 10888 10885 10882 10879 10876 10872 10869 10866 10864 10861 10858 10856 10854 10853 10851 10850 10848 10847 10845 10843 10842 10840 10837 10835 10833
10921 10923 10925 10926 10928 10930 10932 10933 10934 10935 10935 10936 10937 10937 10937 10936 10936 10936 10936 10936 10936 10935 10935 10935 10934 10934 10933 10932 10931 10930 10929 10927 10925 10924 10922 10920 10918 10916 10913 10910 10907 10904 10901 10899 10897 10894 10891 10888 10885 10883 10880 10878 10875 10872 10869 10865 10863 10860 10858 10856 10853 10851 10850 10848 10846 10845 10843 10841 10839 10837 10835 10833 10830 10829
10916 10919 10920 10922 10924 10926 10928 10929 10930 10930 10931 10931 10931 10931 10931 10931 10931 10931 10931 10930 10930 10930 10930 10929 10929 10928 10927 10927 10926 10924 10923 10921 10919 10917 10915 10914 10912 10909 10906 10903 10900 10898 10895 10892 10890 10887 10885 10883 10881 10879 10877 10874 10871 10868 10865 10862 10859 10857 10854 10852 10850 10849 10847 10845 10843 10842 10840 10838 10836 10834 10831 10829 10827 10824
10912 10913 10915 10917 10918 10920 10922 10924 10925 10925 10926 10926 10926 10926 10926 10925 10925 10925 10925 10925 10925 10925 10924 10924 10923 10923 10922 10920 10919 10918 10917 10915 10912 10910 10909 10907 10905 10903 10900 10897 10895 10892 10889 10886 10884 10882 10881 10879 10877 10875 10872 10870 10867 10864 10861 10858 10856 10853 10851 10849 10847 10845 10844 10842 10840 10838 10836 10834 10832 10829 10827 10825 10822 10820
10907 10908 10910 10911 10912 10914 10916 10918 10919 10919 10920 10920 10920 10920 10920 10920 10920 10920 10920 10920 10920 10919 10918 10918 10917 10917 10915 10914 10913 10912 10910 10908 10906 10904 10902 10900 10898 10896 10893 10891 10889 10887 10884 10881 10880 10878 10876 10874 10872 10870 10868 10865 10863 10860 10857 10855 10852 10850 10848 10846 10844 10842 10840 10839 10837 10835 10833 10830 10828 10825 10822 10820 10817 10815
10902 10903 10904 10905 10907 10908 10910 10911 10912 10912 10913 10913 10913 10914 10914 10914 10914 10915 10914 10914 10914 10913 10912 10911 10911 10910 10909 10907 10906 10905 10903 10901 10900 10898 10896 10893 10891 10889 10887 10885 10883 10881 10878 10876 10874 10873 10871 10870 10868 10865 10863 10860 10858 10856 10853 10851 10848 10846 10844 10842 10841 10839 10837 10835 10833 10831 10829 10826 10824 10821 10818 10815 10812 10809
10896 10898 10899 10900 10901 10902 10903 10904 10905 10906 10906 10907 10907 10908 10908 10908 10908 10908 10908 10908 10907 10907 10906 10905 10904 10903 10902 10901 10900 10898 10896 10895 10893 10891 10889 10887 10884 10883 10881 10879 10877 10875 10873 10871 10869 10867 10866 10864 10862 10860 10858 10855 10853 10851 10849 10846 10844 10842 10840 10838 10837 10835 10833 10830 10828 10826 10824 10821 10818 10816 10813 10810 10807 10803
10891 10892 10893 10894 10895 10896 10897 10898 10899 10899 10900 10901 10901 10902 10902 10902 10901 10901 10901 10901 10900 10900 10899 10899 10897 10896 10895 10894 10893 10891 10890 10888 10887 10884 10882 10880 10878 10876 10875 10873 10871 10869 10867 10865 10864 10862 10861 10859 10857 10854 10852 10850 10848 10845 10843 10841 10839 10837 10835 10833 10831 10829 10827 10824 10822 10819 10817 10815 10812 10810 10807 10804 10801 10797
10885 10886 10887 10888 10889 10890 10891 10891 10892 10892 10893 10894 10894 10895 10894 10894 10894 10894 10894 10894 10894 10893 10893 10892 10891 10890 10889 10888 10886 10885 10883 10881 10879 10877 10876 10874 10872 10870 10868 10867 10865 10862 10860 10859 10857 10856 10855 10853 10850 10848 10845 10843 10841 10839 10837 10835 10832 10830 10828 10826 10824 10822 10820 10818 10815 10812 10810 10808 10805 10802 10799 10796 10793 10790
10878 10880 10881 10882 10883 10884 10885 10885 10885 10886 10887 10887 10887 10887 10887 10887 10888 10888 10888 10888 10887 10886 10886 10885 10884 10883 10882 10881 10880 10878 10876 10874 10872 10870 10869 10867 10866 10864 10862 10860 10858 10855 10853 10852 10851 10850 10848 10845 10843 10841 10838 10836 10834 10832 10829 10828 10826 10823 10820 10818 10815 10813 10812 10810 10808 10805 10802 10800 10797 10794 10791 10788 10785 10782
10872 10874 10875 10876 10877 10878 10878 10879 10879 10880 10880 10880 10881 10881 10881 10881 10881 10881 10881 10881 10880 10879 10879 10878 10877 10877 10875 10874 10873 10871 10869 10867 10865 10864 10862 10860 10858 10857 10855 10853 10851 10848 10846 10845 10844 10842 10840 10837 10835 10833 10831 10829 10827 10824 10822 10820 10819 10817 10814 10811 10808 10805 10803 10802 10800 10797 10794 10791 10789 10786 10783 10780 10776 10773
10865 10867 10868 10869 10870 10871 10872 10873 10873 10873 10873 10874 10874 10874 10874 10874 10874 10874 10874 10874 10873 10873 10872 10871 10871 10869 10868 10866 10865 10863 10862 10860 10858 10856 10855 10853 10851 10849 10847 10845 10844 10842 10840 10838 10836 10834 10831 10830 10828 10825 10823 10821 10819 10817 10814 10812 10810 10808 10807 10805 10802 10798 10796 10794 10791 10788 10786 10783 10780 10777 10775 10772 10768 10764
10858 10860 10861 10862 10863 10865 10865 10866 10866 10867 10867 10867 10867 10868 10868 10868 10868 10868 10867 10867 10867 10866 10865 10864 10863 10862 10860 10858 10857 10856 10854 10852 10850 10849 10847 10845 10844 10842 10840 10838 10837 10835 10833 10831 10828 10826 10824 10822 10820 10817 10814 10813 10812 10810 10808 10805 10802 10798 10796 10796 10794 10791 10788 10787 10784 10780 10778 10775 10772 10769 10766 10763 10759 10756
10851 10853 10854 10856 10857 10858 10859 10859 10860 10860 10860 10860 10860 10861 10861 10861 10861 10860 10859 10859 10858 10857 10856 10855 10855 10854 10852 10851 10850 10848 10846 10844 10843 10841 10840 10838 10836 10835 10833 10831 10829 10827 10825 10823 10820 10817 10815 10813 10812 10810 10807 10804 10803 10802 10800 10798 10795 10791 10787 10785 10785 10782 10779 10777 10775 10772 10769 10767 10764 10760 10757 10753 10749 10746
10845 10847 10848 10849 10850 10851 10852 10852 10852 10852 10852 10853 10853 10853 10853 10852 10852 10851 10850 10849 10849 10849 10848 10847 10846 10845 10845 10843 10842 10840 10838 10836 10835 10834 10832 10830 10828 10827 10825 10824 10821 10819 10816 10815 10813 10810 10806 10804 10803 10802 10800 10797 10795 10793 10791 10789 10787 10785 10780 10776 10775 10773 10770 10767 10765 10763 10760 10758 10755 10751 10747 10743 10739 10735
10839 10841 10842 10843 10843 10844 10844 10844 10844 10844 10845 10845 10844 10844 10844 10844 10842 10841 10840 10840 10840 10840 10840 10839 10837 10837 10836 10835 10833 10832 10830 10828 10827 10826 10825 10823 10821 10819 10817 10815 10814 10812 10809 10808 10807 10804 10800 10796 10794 10792 10790 10789 10788 10786 10783 10780 10777 10776 10773 10769 10765 10762 10760 10758 10754 10751 10750 10748 10746 10742 10738 10733 10729 10725
10832 10834 10835 10835 10836 10836 10836 10836 10836 10836 10836 10836 10836 10836 10835 10833 10832 10831 10831 10830 10830 10830 10830 10830 10829 10828 10826 10825 10824 10823 10822 10820 10819 10818 10817 10816 10814 10812 10810 10807 10806 10804 10802 10801 10800 10798 10794 10790 10786 10783 10781 10779 10778 10777 10775 10771 10768 10766 10764 10761 10757 10752 10749 10747 10745 10741 10738 10736 10735 10731 10727 10723 10720 10715
10826 10827 10828 10828 10828 10828 10828 10828 10828 10828 10828 10827 10827 10826 10824 10823 10822 10821 10820 10820 10819 10819 10819 10819 10819 10818 10817 10815 10814 10813 10813 10812 10811 10810 10808 10807 10806 10805 10803 10800 10798 10796 10794 10793 10793 10792 10790 10785 10780 10775 10772 10769 10768 10767 10766 10763 10760 10757 10754 10752 10749 10744 10739 10736 10733 10729 10725 10722 10721 10719 10716 10713 10709 10705
10819 10820 10820 10821 10821 10820 10820 10820 10819 10819 10819 10818 10817 10815 10814 10813 10812 10811 10810 10809 10808 10808 10808 10808 10808 10808 10808 10806 10805 10804 10803 10803 10803 10802 10801 10800 10798 10796 10794 10792 10790 10788 10786 10784 10783 10783 10782 10780 10776 10771 10766 10761 10757 10756 10755 10752 10750 10747 10743 10739 10737 10735 10732 10728 10723 10718 10713 10708 10705 10705 10704 10701 10698 10694